Regional Weather Roundup
Issued by NWS

Home | Current Version | Previous Version | Text Only | Print | Product List | Glossary On
Versions: 1 2 3 4 5 6 7 8 9 10 11 12 13 14 15 16 17 18 19 20 21 22 23 24 25 26 27 28 29 30 31 32 33 34 35 36 37 38 39 40 41 42 43 44 45 46 47 48 49 50
000
ASUS44 KOUN 180310
RWROK

WEATHER ROUNDUP FOR OKLAHOMA
NATIONAL WEATHER SERVICE NORMAN OK
1000 PM CDT THU AUG 17 2017

NOTE: "FAIR" INDICATES FEW OR NO CLOUDS BELOW 12,000 FEET WITH NO
      SIGNIFICANT WEATHER AND/OR OBSTRUCTIONS TO VISIBILITY.

OKZ001>007-009>012-014-015-017-180400-
NORTHWEST OKLAHOMA AND THE PANHANDLE

CITY           SKY/WX    TMP DP  RH WIND       PRES   REMARKS
GAGE           CLOUDY    79  65  62 SE12      30.04R
$$

OKZ016-021>023-033>039-044-045-180400-
SOUTHWEST OKLAHOMA

CITY           SKY/WX    TMP DP  RH WIND       PRES   REMARKS
LAWTON/REGL      N/A    N/A N/A N/A NE3       30.00R
LAWTON/FT SILL CLEAR     78  74  85 SE3       29.99R
FREDERICK      CLOUDY    80  74  81 E7        29.97R
CLINTON        PTCLDY    79  66  64 SE8       30.05R
HOBART         CLEAR     79  71  76 S9        30.02R
ALTUS AFB      CLEAR     75  69  81 E3        30.00R
$$

OKZ018>020-024>031-180400-
CENTRAL OKLAHOMA

CITY           SKY/WX    TMP DP  RH WIND       PRES   REMARKS
OKLAHOMA CITY  PTCLDY    76  69  79 SE3       30.01R
OKC/WILEY POST CLEAR     79  71  76 SW3       30.01R
OKC/TINKER AFB CLEAR     79  70  73 SE3       30.01R
STILLWATER     CLEAR     73  67  81 CALM      29.99R
GUTHRIE        CLEAR     74  69  85 SE3       29.99R
$$

OKZ008-013-054>072-180400-
NORTHEAST OKLAHOMA

CITY           SKY/WX    TMP DP  RH WIND       PRES   REMARKS
TULSA          CLEAR     77  70  79 CALM      29.96R
TULSA/JONES    CLEAR     74  71  91 CALM      29.98R
PONCA CITY     CLEAR     71  66  84 CALM      29.99R
BARTLESVILLE   CLEAR     69  67  93 CALM      29.99R
MUSKOGEE       CLEAR     76  74  93 S5        29.99R
$$

OKZ032-040>043-046>053-073>077-180400-
SOUTH CENTRAL/SOUTHEAST OKLAHOMA

CITY           SKY/WX    TMP DP  RH WIND       PRES   REMARKS
ARDMORE/DWNTWN CLOUDY    79  73  83 CALM      30.01R
MCALESTER      PTCLDY    78  75  90 CALM      30.01R
$$





USA.gov is the U.S. government's official web portal to all federal, state and local government web resources and services.